{"data":{"norad_id":51719,"epoch":"2026-05-24T20:23:06.058752Z","epoch_age_seconds":91610,"freshness":"FRESH","line1":"1 51719U 22016F   26144.84937568 -.00000794  00000+0 -31804-4 0  9992","line2":"2 51719  53.2139 347.3042 0001438  83.7928 276.3228 15.08840232234927","mean_motion":15.08840232,"eccentricity":0.0001438,"inclination_deg":53.2139,"raan_deg":347.3042,"arg_perigee_deg":83.7928,"mean_anomaly_deg":276.3228,"bstar":-3.1804e-5,"rev_number":23492,"period_min":95.437540003241,"perigee_km":538.74788873505,"apogee_km":540.73747093097,"semimajor_km":6917.879679833,"source":"CELESTRAK","updated_at":"2026-05-25T13:38:16.920714Z"}}